Billings, MT

2:18 AM MDT on May 25, 2017 (GMT -0600)
Billings Logan International

Weather History for KBIL - December, 2012

Change the Weather History Date:

Thursday, December 6, 2012

  Actual Average Record
Temperature  
Mean Temperature 35 °F 28 °F  
Max Temperature 40 °F 36 °F 69 °F (1939)
Min Temperature 30 °F 19 °F -20 °F (1972)
Degree Days  
Heating Degree Days 30 37  
Month to date heating degree days 120 219  
Since 1 July heating degree days 1502 1847  
Cooling Degree Days 0 0  
Month to date cooling degree days 0 0  
Year to date cooling degree days 958 636  
Moisture  
Dew Point 26 °F    
Average Humidity 72    
Maximum Humidity 100    
Minimum Humidity 44    
Precipitation  
Precipitation 0.05 in 0.02 in 0.57 in (1971)
Month to date precipitation 0.05 0.11  
Year to date precipitation 6.91 13.27  
Snow  
Snow 0.50 in 0.20 in 5.80 in (1971)
Month to date snowfall 0.5 1.5  
Since 1 July snowfall 12.1 13.2  
Snow Depth 0.00 in    
Sea Level Pressure  
Sea Level Pressure 29.98 in    
Wind  
Wind Speed 6 mph (South)    
Max Wind Speed 12 mph    
Max Gust Speed 16 mph    
Visibility 6 miles    
Events Fog , Snow    
T = Trace of Precipitation, MM = Missing Value Source: NWS Daily Summary

Daily Weather History Graph

Daily Weather History Graph

Search for Another Location

Airport or City:

Trip Planner

Search our weather history database for the weather conditions in past years. The results will help you decide how hot, cold, wet, or windy it might be!

Date:

Astronomy

Dec. 06, 2012 Rise Set
Actual Time 7:41 AM MST 4:29 PM MST
Civil Twilight 7:06 AM MST 5:03 PM MST
Nautical Twilight 6:29 AM MST 5:41 PM MST
Astronomical Twilight 5:53 AM MST 6:17 PM MST
Moon No Moon Rise 12:16 PM MST (12/6)
Length of Visible Light 9h 56m
Length of Day
8h 48m
Waning Gibbous, 48% of the Moon is Illuminated
Dec 6
Waning Gibbous
Dec 13
New
Dec 19
First Quarter
Dec 28
Full
Jan 4
Last Quarter

Hourly Weather History & Observations

Time (MST) Temp. Windchill Dew Point Humidity Pressure Visibility Wind Dir Wind Speed Gust Speed Precip Events Conditions
12:53 AM 37.0 °F 32.4 °F 25.0 °F 62% 30.02 in 10.0 mi East 5.8 mph - 0.00 in   Overcast
1:53 AM 36.0 °F 29.6 °F 26.1 °F 67% 30.04 in 10.0 mi ESE 8.1 mph - N/A   Overcast
2:53 AM 36.0 °F 31.1 °F 26.1 °F 67% 30.04 in 10.0 mi South 5.8 mph - N/A   Overcast
3:53 AM 34.0 °F 27.2 °F 26.1 °F 73% 30.05 in 10.0 mi SSE 8.1 mph - N/A   Scattered Clouds
4:53 AM 34.0 °F 31.0 °F 24.1 °F 67% 30.05 in 10.0 mi SSE 3.5 mph - N/A   Scattered Clouds
5:53 AM 35.1 °F 28.6 °F 21.9 °F 59% 30.03 in 10.0 mi SSE 8.1 mph - N/A   Overcast
6:53 AM 34.0 °F 29.8 °F 19.9 °F 56% 30.04 in 10.0 mi South 4.6 mph - N/A   Scattered Clouds
7:53 AM 32.0 °F 27.5 °F 21.0 °F 64% 30.06 in 10.0 mi North 4.6 mph - N/A   Mostly Cloudy
8:53 AM 35.1 °F - 19.0 °F 52% 30.06 in 10.0 mi Calm Calm - N/A   Mostly Cloudy
9:53 AM 36.0 °F 32.1 °F 19.0 °F 50% 30.05 in 10.0 mi Variable 4.6 mph - N/A   Scattered Clouds
10:53 AM 37.0 °F 33.3 °F 19.9 °F 50% 30.05 in 10.0 mi East 4.6 mph - N/A   Scattered Clouds
11:53 AM 37.9 °F 33.5 °F 19.9 °F 48% 30.01 in 10.0 mi East 5.8 mph - N/A   Scattered Clouds
12:53 PM 39.0 °F 35.7 °F 19.9 °F 46% 29.99 in 10.0 mi SE 4.6 mph - N/A   Mostly Cloudy
1:53 PM 37.9 °F 35.5 °F 19.9 °F 48% 29.96 in 10.0 mi Variable 3.5 mph - N/A   Mostly Cloudy
2:53 PM 37.9 °F - 19.0 °F 47% 29.96 in 10.0 mi Calm Calm - N/A   Overcast
3:53 PM 35.1 °F 26.9 °F 25.0 °F 67% 29.99 in 10.0 mi North 11.5 mph - N/A   Overcast
4:53 PM 33.1 °F 30.0 °F 28.9 °F 85% 30.00 in 8.0 mi WNW 3.5 mph - 0.00 in Snow Light Snow
5:03 PM 32.0 °F - 28.4 °F 87% 29.92 in 5.0 mi Calm Calm - 0.00 in Snow Light Snow
5:39 PM 32.0 °F 24.8 °F 28.4 °F 87% 29.91 in 7.0 mi South 8.1 mph - 0.00 in Snow Light Snow
5:53 PM 32.0 °F 24.8 °F 28.9 °F 88% 29.99 in 3.0 mi South 8.1 mph - 0.00 in Snow Light Snow
6:03 PM 30.2 °F 24.3 °F 30.2 °F 100% 29.91 in 2.5 mi SSW 5.8 mph - 0.00 in Snow Light Snow
6:24 PM 30.2 °F 24.3 °F 30.2 °F 100% 29.90 in 1.0 mi SSW 5.8 mph - 0.01 in Snow Light Snow
6:37 PM 30.2 °F 23.4 °F 30.2 °F 100% 29.90 in 0.5 mi South 6.9 mph - 0.01 in Snow Light Snow
6:44 PM 30.2 °F 23.4 °F 30.2 °F 100% 29.90 in 0.5 mi SSW 6.9 mph - 0.01 in Snow Light Snow
6:53 PM 30.9 °F 24.3 °F 30.0 °F 96% 29.98 in 1.0 mi SSW 6.9 mph - 0.01 in Snow Light Snow
7:12 PM 30.2 °F 22.6 °F 30.2 °F 100% 29.90 in 1.0 mi SSW 8.1 mph - N/A Snow Light Snow
7:19 PM 30.2 °F 22.6 °F 30.2 °F 100% 29.90 in 0.5 mi South 8.1 mph - 0.01 in Snow Light Snow
7:53 PM 30.9 °F 26.2 °F 30.0 °F 96% 29.99 in 0.5 mi SSW 4.6 mph - 0.03 in Fog , Snow Light Snow
7:55 PM 30.2 °F 25.4 °F 30.2 °F 100% 29.90 in 1.0 mi South 4.6 mph - 0.00 in Snow Light Snow
8:04 PM 30.2 °F 23.4 °F 30.2 °F 100% 29.90 in 1.0 mi SSW 6.9 mph - 0.00 in Snow Light Snow
8:43 PM 30.2 °F 23.4 °F 30.2 °F 100% 29.90 in 3.0 mi SSW 6.9 mph - 0.01 in Snow Light Snow
8:48 PM 30.2 °F 25.4 °F 28.4 °F 93% 29.90 in 3.0 mi South 4.6 mph - 0.01 in Snow Light Snow
8:53 PM 30.9 °F 24.3 °F 30.0 °F 96% 29.98 in 5.0 mi South 6.9 mph - 0.01 in Snow Light Snow
9:53 PM 30.9 °F 23.5 °F 30.0 °F 96% 29.97 in 2.5 mi SW 8.1 mph - 0.00 in Snow Light Snow
9:57 PM 30.2 °F 22.6 °F 30.2 °F 100% 29.89 in 2.5 mi WSW 8.1 mph - 0.00 in Snow Light Snow
10:18 PM 30.2 °F 21.9 °F 30.2 °F 100% 29.89 in 3.0 mi WSW 9.2 mph - 0.00 in Snow Light Snow
10:53 PM 30.9 °F 22.8 °F 28.9 °F 92% 29.97 in 5.0 mi WSW 9.2 mph - 0.00 in Snow Light Snow
11:53 PM 30.0 °F 21.7 °F 30.0 °F 100% 29.96 in 2.0 mi WSW 9.2 mph - 0.00 in   Overcast